Location: Bruderhein
(53.8035°N, 112.9265°W)
Time: 00:12:17
(UTC+00:00)

Gurwin Techsat 1B - Pass Details

Date: 19 April 2024
Orbit: 811 x 812 km, 98.9° (Epoch: 20 May)

Event Time Altitude Azimuth Distance (km) Brightness Sun altitude
Rises 10:44:08 0° 19° (NNE) 3,350 12.9 -13.0°
Reaches altitude 10° 10:46:35 10° 26° (NNE) 2,414 12.2 -12.7°
Maximum altitude 10:51:42 45° 99° (E) 1,097 9.6 -12.1°
Drops below altitude 10° 10:56:47 10° 172° (S) 2,396 10.8 -11.6°
Sets 10:59:13 0° 178° (S) 3,323 11.4 -11.3°
